Weather in Popivka

Ukraine / Poltava Region     49°46′48″N   33°21′14″E
temp.,
°C
wind,
m/s
gust,
m/s
humid.,
%
clouds,
%
prec.,
mm/h
press.,
hPa
HPBL,
m
15 may, sat
sat1500:00+12s338716 0.0 100839
03:00+12s37954 0.0 1009126
06:00+11s38955 0.0 1010194
09:00+17ssw57735 0.0 1011659
12:00+20ssw68605 0.1 10111489
15:00+21sw575799 1.0 10111923
18:00+20ssw5763100 0.1 1011555
21:00+16w337795 0.3 101258
16 may, sun
sun1600:00+15s117495 0.0 101211
03:00+12w22875 0.0 101316
06:00+12nw12865 0.0 101313
09:00+18nw1167100 0.0 1014350
12:00+22e1152100 0.0 10131152
15:00+23ene334791 0.0 10121941
18:00+22ene2458100 0.0 1011256
21:00+17ne4572100 0.0 101061
17 may, mon
mon1700:00+16ne41176100 0.0 1008214
03:00+15n4794100 3.9 1007173
06:00+14nne5894100 0.1 1005170
09:00+18ene4680100 0.1 1004381
12:00+23ese5658100 0.0 1003848
15:00+24ese5658100 0.0 10021257
18:00+24se587010 0.1 1002987
21:00+19s512834 0.1 1003322
18 may, tue
tue1800:00+16sse6129074 0.0 1003483
03:00+16s51086100 0.0 1002739
06:00+16ssw5995100 0.6 1003479
09:00+18ssw5677100 0.6 1004655
12:00+21s7963100 0.4 10041317
15:00+21ssw7968100 2.1 10031376
18:00+16wsw3892100 6.6 1003345
21:00+13wsw389444 7.3 1006225
19 may, wed
wed1900:00+10wsw410944 0.0 1008298
03:00+9sw38960 0.0 1009207
06:00+9sw310945 0.0 1010279
09:00+14sw79744 0.0 1011822
12:00+18wsw710560 0.0 10101617
15:00+19sw7105072 0.0 10102398
18:00+16w5871100 0.4 1011535
21:00+12w33800 0.5 101323